Weather History for KMOT - October, 2014

Change the Weather History Date:

Saturday, October 25, 2014

  Actual Average Record
Temperature  
Mean Temperature 48 °F 40 °F  
Max Temperature 61 °F 50 °F 78 °F (1924)
Min Temperature 35 °F 30 °F 3 °F (1942)
Degree Days  
Heating Degree Days 17 25  
Month to date heating degree days 391 480  
Since 1 July heating degree days 671 800  
Cooling Degree Days 0 0  
Month to date cooling degree days 0 0  
Year to date cooling degree days 341 444  
Moisture  
Dew Point 28 °F    
Average Humidity 50    
Maximum Humidity 75    
Minimum Humidity 24    
Precipitation  
Precipitation 0.00 in 0.03 in 0.40 in (2011)
Month to date precipitation 0.27 0.98  
Year to date precipitation 15.76 15.88  
Sea Level Pressure  
Sea Level Pressure 30.07 in    
Wind  
Wind Speed 7 mph (SSW)    
Max Wind Speed 13 mph    
Max Gust Speed 15 mph    
Visibility 10 miles    
Events      
T = Trace of Precipitation, MM = Missing Value Source: NWS Daily Summary

Daily Weather History Graph

Daily Weather History Graph

Search for Another Location

Airport or City:

Trip Planner

Search our weather history database for the weather conditions in past years. The results will help you decide how hot, cold, wet, or windy it might be!

Date:

Astronomy

Oct. 25, 2014 Rise Set
Actual Time 8:19 AM CDT 6:37 PM CDT
Civil Twilight 7:47 AM CDT 7:09 PM CDT
Nautical Twilight 7:11 AM CDT 7:46 PM CDT
Astronomical Twilight 6:35 AM CDT 8:22 PM CDT
Moon 10:06 AM CDT 7:55 PM CDT
Length of Visible Light 11h 21m
Length of Day
10h 17m
Waxing Crescent, 3% of the Moon is Illuminated
Oct 25
Waxing Crescent
Oct 30
First Quarter
Nov 6
Full
Nov 14
Last Quarter
Nov 22
New

Hourly Weather History & Observations

Time (CDT) Temp. Windchill Dew Point Humidity Pressure Visibility Wind Dir Wind Speed Gust Speed Precip Events Conditions
12:54 AM 44.1 °F 40.1 °F 28.9 °F 55% 30.04 in 10.0 mi WSW 6.9 mph - N/A   Clear
1:54 AM 44.1 °F 39.5 °F 28.9 °F 55% 30.04 in 10.0 mi WSW 8.1 mph - N/A   Clear
2:54 AM 39.9 °F 33.9 °F 28.9 °F 65% 30.06 in 10.0 mi SW 9.2 mph - N/A   Clear
3:54 AM 45.0 °F 39.3 °F 28.9 °F 53% 30.07 in 10.0 mi West 11.5 mph - N/A   Clear
4:54 AM 43.0 °F 36.8 °F 30.0 °F 60% 30.09 in 10.0 mi West 11.5 mph - N/A   Clear
5:54 AM 43.0 °F 38.2 °F 28.9 °F 58% 30.11 in 10.0 mi WSW 8.1 mph - N/A   Clear
6:54 AM 39.9 °F 33.4 °F 30.0 °F 68% 30.13 in 10.0 mi West 10.4 mph - N/A   Clear
7:54 AM 36.0 °F 29.6 °F 28.9 °F 76% 30.14 in 10.0 mi SW 8.1 mph - N/A   Clear
8:54 AM 36.0 °F 28.5 °F 28.9 °F 76% 30.15 in 10.0 mi SW 10.4 mph - N/A   Clear
9:54 AM 44.1 °F 40.8 °F 30.0 °F 58% 30.16 in 10.0 mi SW 5.8 mph - N/A   Clear
10:54 AM 48.9 °F - 30.9 °F 50% 30.16 in 10.0 mi SW 5.8 mph - N/A   Clear
11:54 AM 53.1 °F - 30.0 °F 41% 30.14 in 10.0 mi SSW 5.8 mph - N/A   Clear
12:54 PM 57.0 °F - 21.9 °F 26% 30.13 in 10.0 mi Variable 3.5 mph - N/A   Clear
1:54 PM 57.9 °F - 25.0 °F 28% 30.11 in 10.0 mi SSE 5.8 mph - N/A   Clear
2:54 PM 60.1 °F - 24.1 °F 25% 30.09 in 10.0 mi SW 3.5 mph - N/A   Clear
3:54 PM 59.0 °F - 24.1 °F 26% 30.07 in 10.0 mi South 6.9 mph - N/A   Mostly Cloudy
4:54 PM 61.0 °F - 26.1 °F 26% 30.05 in 10.0 mi SSE 8.1 mph - N/A   Clear
5:54 PM 57.9 °F - 28.0 °F 32% 30.03 in 10.0 mi SSE 6.9 mph - N/A   Clear
6:54 PM 52.0 °F - 27.0 °F 38% 30.02 in 10.0 mi ESE 5.8 mph - N/A   Clear
7:54 PM 46.0 °F 43.1 °F 27.0 °F 47% 30.01 in 10.0 mi ESE 5.8 mph - N/A   Clear
8:54 PM 42.1 °F 37.7 °F 28.9 °F 60% 30.00 in 10.0 mi SE 6.9 mph - N/A   Clear
9:54 PM 42.1 °F 38.4 °F 28.0 °F 58% 29.95 in 10.0 mi SE 5.8 mph - N/A   Clear
10:54 PM 37.9 °F 32.1 °F 28.9 °F 70% 29.94 in 10.0 mi ESE 8.1 mph - N/A   Clear
11:54 PM 39.0 °F 34.0 °F 28.9 °F 67% 29.91 in 10.0 mi ESE 6.9 mph - N/A   Clear